Regional Weather Roundup
Issued by NWS

Home | Current Version | Previous Version | Text Only | Print | Product List | Glossary On
Versions: 1 2 3 4 5 6 7 8 9 10 11 12 13 14 15 16 17 18 19 20 21 22 23 24 25 26 27 28 29 30 31 32 33 34 35 36 37 38 39 40 41 42 43 44 45 46 47 48 49 50
000
ASUS43 KTOP 231059
RWRKS

WEATHER ROUNDUP FOR KANSAS
NATIONAL WEATHER SERVICE GOODLAND KS
600 AM CDT THU OCT 23 2014

NOTE:  "FAIR" INDICATES FEW OR NO CLOUDS BELOW 12,000 FEET WITH NO
SIGNIFICANT WEATHER AND/OR OBSTRUCTIONS TO VISIBILITY.

KSZ001>006-013>018-027>032-041>047-231200-
NORTHWEST KANSAS

CITY           SKY/WX    TMP DP  RH WIND       PRES   REMARKS
GOODLAND       CLEAR     42  40  92 W5        30.12S
HAYS           CLOUDY    54  48  82 CALM      30.07R VSB 1/2
HILL CITY      FOG       49  48  97 NW7       30.09R VSB 1/4
RUSSELL        FOG       54  54 100 S6        30.05R VSB 1/4
$$

KSZ061>065-074>080-084>089-231200-
SOUTHWEST KANSAS

CITY           SKY/WX    TMP DP  RH WIND       PRES   REMARKS
DODGE CITY     MOCLDY    56  54  93 S5        30.07R FOG
ELKHART          N/A     51  49  93 SW5         N/A
GARDEN CITY    FOG       56  56 100 W5        30.06S VSB 3/4
GREAT BEND     CLOUDY    61  55  82 S7        30.07R
LIBERAL        CLEAR     57  52  82 CALM      30.07S
$$

KSZ066>073-081>083-090>101-231200-
SOUTHEAST KANSAS

CITY           SKY/WX    TMP DP  RH WIND       PRES   REMARKS
CHANUTE        LGT RAIN  60  58  92 S8        30.11S
COFFEYVILLE    CLOUDY    59  57  93 S6        30.12S
HUTCHINSON     CLOUDY    61  57  87 S6        30.07R
NEWTON         CLOUDY    61  54  77 S9        30.10S
PARSONS        CLOUDY    60  58  92 S3        30.13R
WICHITA INTL   CLOUDY    61  58  90 S9        30.08S
WICHITA JABRA  CLOUDY    61  58  90 SW9       30.08S
WINFIELD       MOCLDY    62  61  96 S7        30.09F FOG
$$

KSZ007>012-019>026-033>040-048>060-102>105-231200-
NORTHEAST KANSAS

CITY           SKY/WX    TMP DP  RH WIND       PRES   REMARKS
CONCORDIA      CLOUDY    61  60  97 S5        30.05R
EMPORIA        LGT RAIN  61  61 100 S5        30.08R
LAWRENCE       LGT RAIN  60  58  92 SW7       30.11F FOG
MANHATTAN      CLOUDY    62  60  93 CALM      30.06S FOG
OLATHE IND     LGT RAIN  58  57  97 CALM      30.11F
OLATHE EXE     LGT RAIN  57  56  96 S6        30.11F
SALINA         CLOUDY    63  58  83 SW8       30.06R
TOPEKA BILLARD LGT RAIN  62  61  96 SE9       30.08F
TOPEKA FORBES  LGT RAIN  60  59  96 SE9       30.09F FOG
$$



USA.gov is the U.S. government's official web portal to all federal, state and local government web resources and services.